Weather in Horodyshche

Ukraine / Luhansk Region     48°19′23″N   38°37′55″E
temp.,
°C
wind,
m/s
gust,
m/s
humid.,
%
clouds,
%
prec.,
mm/h
press.,
hPa
HPBL,
m
25 july, sun
sun2500:00+21nne235219 0.0 101662
03:00+18ne22640 0.0 101622
06:00+18ne22683 0.0 101744
09:00+24ne34492 0.0 1018590
12:00+27ne33391 0.0 10182182
15:00+27nne233899 0.0 10181738
18:00+25n574825 0.0 1018350
21:00+22nne394921 0.0 1019168
26 july, mon
mon2600:00+20nne48550 0.0 1020123
03:00+18nne36580 0.0 102082
06:00+18ne35620 0.0 102084
09:00+24ne57480 0.0 1020457
12:00+28ene55351 0.0 10202022
15:00+30ne54307 0.0 10192773
18:00+29ne463674 0.0 1018409
21:00+25nne483890 0.0 1019199
27 july, tue
tue2700:00+23ne6124013 0.0 1020307
03:00+20ene494510 0.0 1020189
06:00+19ne365560 0.0 1020136
09:00+25e45450 0.0 1020568
12:00+29e55371 0.0 10202139
15:00+29ene443590 0.0 10192320
18:00+29ese223524 0.0 10181880
21:00+26s2342100 0.0 101943
28 july, wed
wed2800:00+23ssw22509 0.0 101926
03:00+20ssw226123 0.0 101923
06:00+20wsw24697 0.0 101976
09:00+26wnw22495 0.0 1019626
12:00+29w223527 0.0 10182881
15:00+28sw343949 0.0 10171240
18:00+25wsw465090 0.0 1016236
21:00+24ssw2447100 0.0 101665
29 july, thu
thu2900:00+22sw37577 0.0 1015125
03:00+21w38629 0.0 1015134
06:00+21wsw246339 0.0 101598
09:00+26sw574365 0.0 1014628
12:00+30sw68375 0.0 10131788
15:00+31sw783311 0.0 10112563
18:00+30wsw4641100 0.0 1010861
21:00+26sw6125285 0.0 1011493